This is the latest recevied weather packets stored in our database for station/object DK8HC-WX. If no packets are shown the sender has not sent any weather packets the latest 10 day(s).
| Time | Temp. | Humidity | Pressure | Rain* | Wind** | Luminosity | Snow |
|---|---|---|---|---|---|---|---|
| 1777426282 | 5° C | 100% | 1028 hPa | - | - | - | - |
| 1777425682 | 4.44° C | 100% | 1028 hPa | - | - | - | - |
| 1777425082 | 5° C | 100% | 1028 hPa | - | - | - | - |
| 1777424482 | 5° C | 100% | 1027.9 hPa | - | - | - | - |
| 1777423882 | 5.56° C | 100% | 1027.9 hPa | - | - | - | - |
| 1777423282 | 5.56° C | 100% | 1028 hPa | - | - | - | - |
| 1777422682 | 6.11° C | 100% | 1028 hPa | - | - | - | - |
| 1777422082 | 6.11° C | 100% | 1027.9 hPa | - | - | - | - |
| 1777421482 | 6.11° C | 97% | 1027.9 hPa | - | - | - | - |
| 1777420882 | 6.67° C | 93% | 1028.1 hPa | - | - | - | - |
| 1777420282 | 6.67° C | 89% | 1028.2 hPa | - | - | - | - |
| 1777419682 | 7.22° C | 86% | 1028.1 hPa | - | - | - | - |
| 1777419082 | 7.22° C | 83% | 1028.2 hPa | - | - | - | - |
| 1777418482 | 7.22° C | 80% | 1028.3 hPa | - | - | - | - |
| 1777417882 | 7.78° C | 80% | 1028.2 hPa | - | - | - | - |
| 1777417282 | 7.78° C | 78% | 1028.1 hPa | - | - | - | - |
| 1777416682 | 7.78° C | 76% | 1028.1 hPa | - | - | - | - |
| 1777416082 | 7.78° C | 74% | 1028 hPa | - | - | - | - |
| 1777415482 | 8.33° C | 72% | 1027.9 hPa | - | - | - | - |
| 1777414883 | 8.33° C | 69% | 1027.9 hPa | - | - | - | - |
| 1777414281 | 8.33° C | 68% | 1027.8 hPa | - | - | - | - |
| 1777413681 | 8.89° C | 66% | 1027.8 hPa | - | - | - | - |
| 1777413082 | 8.89° C | 64% | 1027.8 hPa | - | - | - | - |
| 1777412482 | 8.89° C | 63% | 1027.8 hPa | - | - | - | - |
| 1777411881 | 9.44° C | 62% | 1027.8 hPa | - | - | - | - |
* Rain since midnight (hover to see other rain measurements)
** Current wind speed in m/s (hover to see current wind gust speed)